Location: Clayton (historical)
(34.0300°N, 118.0259°W)
Time: 07:08:00
(UTC+00:00)

ARGOS Delta rocket - Pass Details

Date: 29 October 2020
Orbit: 636 x 837 km, 96.5° (Epoch: 30 November)

Event Time Altitude Azimuth Distance (km) Brightness Sun altitude
Rises 12:38:30 0° 11° (N) 3,368 7.4 -19.4°
Reaches altitude 10° 12:40:52 10° 12° (NNE) 2,444 6.7 -18.9°
Maximum altitude 12:46:21 81° 100° (E) 850 4.2 -17.8°
Drops below altitude 10° 12:51:48 10° 188° (S) 2,428 6.6 -16.6°
Sets 12:54:08 0° 189° (S) 3,345 7.3 -16.2°
